TimePST,TemperatureF,Dew PointF,Humidity,Sea Level PressureIn,VisibilityMPH,Wind Direction,Wind SpeedMPH,Gust SpeedMPH,PrecipitationIn,Events,Conditions,WindDirDegrees,DateUTC
12:53 AM,50.0,46.9,89,30.51,10.0,SW,11.5,-,N/A,,Overcast,220,2014-01-13 08:53:00
1:53 AM,48.9,46.9,93,30.54,10.0,SW,8.1,-,N/A,,Overcast,220,2014-01-13 09:53:00
2:53 AM,48.9,46.0,90,30.56,10.0,SSW,8.1,-,N/A,,Overcast,210,2014-01-13 10:53:00
3:53 AM,48.9,45.0,86,30.58,10.0,SW,8.1,-,N/A,,Overcast,230,2014-01-13 11:53:00
4:53 AM,48.9,45.0,86,30.58,10.0,SSW,8.1,-,N/A,,Overcast,200,2014-01-13 12:53:00
5:53 AM,48.9,45.0,86,30.58,10.0,SSW,9.2,-,N/A,,Overcast,200,2014-01-13 13:53:00
6:53 AM,48.9,45.0,86,30.60,10.0,SSW,6.9,-,N/A,,Overcast,210,2014-01-13 14:53:00
7:53 AM,48.0,45.0,89,30.62,10.0,SSW,6.9,-,N/A,,Overcast,210,2014-01-13 15:53:00
8:53 AM,48.9,45.0,86,30.64,10.0,SSW,8.1,-,N/A,,Overcast,210,2014-01-13 16:53:00
9:53 AM,50.0,46.0,86,30.64,10.0,SW,11.5,-,N/A,,Overcast,220,2014-01-13 17:53:00
10:53 AM,51.1,46.9,86,30.64,10.0,SW,10.4,-,N/A,,Mostly Cloudy,230,2014-01-13 18:53:00
11:53 AM,54.0,46.9,77,30.62,10.0,WSW,11.5,-,N/A,,Scattered Clouds,250,2014-01-13 19:53:00
12:53 PM,54.0,46.0,75,30.61,10.0,SW,9.2,-,N/A,,Mostly Cloudy,230,2014-01-13 20:53:00
1:53 PM,54.0,44.1,69,30.61,10.0,WSW,11.5,-,N/A,,Overcast,240,2014-01-13 21:53:00
2:53 PM,55.0,46.0,72,30.63,10.0,SW,11.5,-,N/A,,Clear,220,2014-01-13 22:53:00
3:53 PM,53.1,45.0,74,30.64,10.0,SSW,5.8,-,N/A,,Overcast,210,2014-01-13 23:53:00
4:53 PM,50.0,45.0,83,30.65,10.0,SSW,8.1,-,N/A,,Scattered Clouds,200,2014-01-14 00:53:00
5:53 PM,48.9,46.0,90,30.66,10.0,SSW,5.8,-,N/A,,Overcast,200,2014-01-14 01:53:00
6:53 PM,46.0,44.1,93,30.66,10.0,SW,3.5,-,N/A,,Partly Cloudy,220,2014-01-14 02:53:00
7:53 PM,44.1,43.0,96,30.67,10.0,SE,3.5,-,N/A,,Clear,140,2014-01-14 03:53:00
8:53 PM,44.1,43.0,96,30.68,8.0,Calm,Calm,-,N/A,,Mostly Cloudy,0,2014-01-14 04:53:00
9:53 PM,39.0,39.0,100,30.69,7.0,WNW,3.5,-,N/A,,Clear,300,2014-01-14 05:53:00
10:53 PM,39.0,37.9,96,30.69,2.5,Calm,Calm,-,N/A,,Clear,0,2014-01-14 06:53:00
11:02 PM,39.9,39.9,100,30.68,1.5,Calm,Calm,-,N/A,,Clear,0,2014-01-14 07:02:00
11:15 PM,37.9,37.9,100,30.68,0.8,Calm,Calm,-,N/A,,Mist,0,2014-01-14 07:15:00
11:30 PM,39.9,39.9,100,30.68,1.5,NNW,4.6,-,N/A,,Partly Cloudy,330,2014-01-14 07:30:00
11:33 PM,41.0,39.9,96,30.67,4.0,NNW,4.6,-,N/A,,Partly Cloudy,330,2014-01-14 07:33:00
11:53 PM,39.9,39.9,100,30.67,6.0,North,6.9,-,N/A,,Clear,350,2014-01-14 07:53:00